Main page
METAR-TAF:

METAR-TAF

Airports :

Edwards County Airport

Rocksprings, Texas, United States

latitude: 29-56-48N, longitude: 100-10-25W, elevation: 2371 ft

Current weather observation

The report was made 19 minutes ago, at 06:15 UTC
Wind 16 mph from the North with gusts up to 24 mph
Temperature 39°F
Humidity 56%
Pressure 30.13 in. Hg
Visibility: 10 miles
Overcast at a height of 9500 ft

METAR: KECU 230615Z AUTO 35014G21KT 10SM OVC095 04/M04 A3013 RMK AO2

Time: 00:34 (06:34 UTC)


TAF: missing

Weather observations and forecasts of more than 4000 airports (METAR and TAF reports).

The available stations are represented by yellow and red dots on the map.

Hover mouse over dot to see the name of the station.

Then click to see weather observations and forecasts.

To change the map : click on the green buttons with a black cross to zoom in, on the green button with a dash to zoom out, or on the green arrows for adjacent maps.


METAR-TAF: